Simultaneous Nadir Overpasses (SNOs) Predictions

Prediction of SNOs over PacNW region [( 10.00, 139.50) to ( 22.70, 165.60)] between AQUA and NPP Satellites:

Table of predicted SNOs over PacNW region for the next 30.0 days since TLE Epoch: 11/3/2017
Index Date (AQUA) Time (AQUA) AQUA Lat,Lon Date (NPP) Time (NPP) NPP Lat,Lon Distance(km) Time Diff (sec)
1 11/08/2017 15:59:09 22.59, 147.48 11/08/2017 16:02:20 23.24, 144.47 316.76 191
2 11/16/2017 15:09:41 22.61, 159.86 11/16/2017 15:11:35 23.20, 157.14 286.40 114
3 11/19/2017 03:31:29 22.64, 147.55 11/19/2017 03:28:00 23.30, 145.52 220.23 209
4 11/24/2017 15:59:04 22.61, 147.52 11/24/2017 16:02:16 23.31, 144.47 321.64 192




NCC Satellite Simultaneous Nadir Overpasses (SNOs) Prediction Service
